Main page
METAR-TAF:

METAR-TAF

Airports :

Rajmata Vijaya Raje Scindia Airport

Gwalior, India

latitude: 26-17-36N, longitude: 78-13-40E, elevation: 188 m

Current weather observation

The report was made 1 hour and 30 minutes ago, at 03:00 UTC
Calm wind
Temperature 26°C
Humidity 100%
Pressure 1000 hPa
Visibility: 3000 m
Broken clouds at a height of 1800 ft
Overcast at a height of 8000 ft
rain

METAR: VIGR 220300Z 00000KT 3000 RA BKN018 OVC080 26/26 Q1000

Time: 10:00 (04:30 UTC)


TAF: missing

Weather observations and forecasts of more than 4000 airports (METAR and TAF reports).

The available stations are represented by yellow and red dots on the map.

Hover mouse over dot to see the name of the station.

Then click to see weather observations and forecasts.

To change the map : click on the green buttons with a black cross to zoom in, on the green button with a dash to zoom out, or on the green arrows for adjacent maps.


METAR-TAF: